TimeCDT,TemperatureF,Dew PointF,Humidity,Sea Level PressureIn,VisibilityMPH,Wind Direction,Wind SpeedMPH,Gust SpeedMPH,PrecipitationIn,Events,Conditions,WindDirDegrees,DateUTC
12:15 AM,31.8,24.6,75,30.31,10.0,WSW,4.6,-,N/A,,Clear,250,2012-10-07 05:15:00
12:35 AM,33.1,25.7,74,30.31,10.0,WSW,5.8,-,N/A,,Clear,250,2012-10-07 05:35:00
12:55 AM,30.6,24.1,77,30.31,10.0,WSW,4.6,-,N/A,,Clear,250,2012-10-07 05:55:00
1:15 AM,31.5,24.8,76,30.31,10.0,WSW,5.8,-,N/A,,Clear,250,2012-10-07 06:15:00
1:35 AM,32.0,24.8,75,30.30,10.0,WSW,4.6,-,N/A,,Clear,250,2012-10-07 06:35:00
1:55 AM,30.2,23.9,77,30.30,10.0,WSW,5.8,-,N/A,,Clear,240,2012-10-07 06:55:00
2:15 AM,30.0,24.4,80,30.30,10.0,West,5.8,-,N/A,,Clear,260,2012-10-07 07:15:00
2:35 AM,29.1,23.2,78,30.30,10.0,Calm,Calm,-,N/A,,Clear,0,2012-10-07 07:35:00
2:55 AM,28.4,23.5,82,30.29,10.0,West,6.9,-,N/A,,Clear,260,2012-10-07 07:55:00
3:15 AM,31.1,24.8,77,30.28,10.0,West,4.6,-,N/A,,Clear,270,2012-10-07 08:15:00
3:35 AM,31.3,24.8,77,30.28,10.0,Calm,Calm,-,N/A,,Clear,0,2012-10-07 08:35:00
3:55 AM,29.7,23.0,76,30.27,10.0,Calm,Calm,-,N/A,,Clear,0,2012-10-07 08:55:00
4:15 AM,30.2,23.0,75,30.27,10.0,Calm,Calm,-,N/A,,Clear,0,2012-10-07 09:15:00
4:35 AM,28.9,23.4,80,30.27,10.0,West,3.5,-,N/A,,Clear,260,2012-10-07 09:35:00
4:55 AM,22.6,18.5,84,30.26,10.0,Calm,Calm,-,N/A,,Clear,0,2012-10-07 09:55:00
5:15 AM,24.8,21.0,86,30.27,10.0,Calm,Calm,-,N/A,,Clear,0,2012-10-07 10:15:00
5:35 AM,24.6,20.3,84,30.26,10.0,Calm,Calm,-,N/A,,Clear,0,2012-10-07 10:35:00
5:55 AM,22.8,19.2,86,30.26,10.0,Calm,Calm,-,N/A,,Clear,0,2012-10-07 10:55:00
6:15 AM,22.1,18.7,87,30.25,10.0,Calm,Calm,-,N/A,,Clear,0,2012-10-07 11:15:00
6:35 AM,20.7,17.2,87,30.25,10.0,ESE,3.5,-,N/A,,Clear,120,2012-10-07 11:35:00
6:55 AM,21.2,18.0,87,30.26,10.0,Calm,Calm,-,N/A,,Clear,0,2012-10-07 11:55:00
7:15 AM,21.4,18.0,87,30.26,10.0,Calm,Calm,-,N/A,,Clear,0,2012-10-07 12:15:00
7:35 AM,22.3,20.5,93,30.26,10.0,Calm,Calm,-,N/A,,Clear,0,2012-10-07 12:35:00
7:55 AM,20.7,17.6,88,30.27,10.0,Calm,Calm,-,N/A,,Clear,0,2012-10-07 12:55:00
8:15 AM,24.1,20.7,87,30.27,10.0,Calm,Calm,-,N/A,,Clear,0,2012-10-07 13:15:00
8:35 AM,26.6,23.0,86,30.27,10.0,Calm,Calm,-,N/A,,Clear,0,2012-10-07 13:35:00
8:55 AM,31.1,25.0,78,30.27,10.0,SSW,3.5,-,N/A,,Clear,210,2012-10-07 13:55:00
9:15 AM,33.8,26.6,75,30.27,10.0,SW,3.5,-,N/A,,Clear,230,2012-10-07 14:15:00
9:35 AM,36.1,27.5,71,30.27,10.0,West,3.5,-,N/A,,Clear,260,2012-10-07 14:35:00
9:55 AM,38.3,28.6,68,30.26,10.0,Calm,Calm,-,N/A,,Clear,0,2012-10-07 14:55:00
10:15 AM,42.3,30.4,63,30.25,10.0,West,8.1,-,N/A,,Clear,280,2012-10-07 15:15:00
10:35 AM,43.9,30.6,59,30.25,10.0,WSW,4.6,-,N/A,,Clear,250,2012-10-07 15:35:00
10:55 AM,45.7,30.7,56,30.24,10.0,SW,5.8,-,N/A,,Clear,230,2012-10-07 15:55:00
11:15 AM,48.9,30.0,48,30.23,10.0,West,8.1,-,N/A,,Clear,270,2012-10-07 16:15:00
11:35 AM,50.7,28.4,42,30.22,10.0,WSW,10.4,-,N/A,,Clear,240,2012-10-07 16:35:00
11:55 AM,51.8,27.5,39,30.21,10.0,West,11.5,18.4,N/A,,Clear,260,2012-10-07 16:55:00
12:15 PM,52.7,27.0,37,30.20,10.0,SW,11.5,17.3,N/A,,Clear,220,2012-10-07 17:15:00
12:35 PM,53.1,25.0,34,30.19,10.0,West,12.7,18.4,N/A,,Clear,260,2012-10-07 17:35:00
12:55 PM,53.4,24.8,33,30.17,10.0,SW,11.5,23.0,N/A,,Clear,230,2012-10-07 17:55:00
1:15 PM,54.9,23.9,30,30.17,10.0,WSW,12.7,20.7,N/A,,Clear,250,2012-10-07 18:15:00
1:35 PM,55.2,23.5,29,30.15,10.0,WSW,15.0,24.2,N/A,,Clear,250,2012-10-07 18:35:00
1:55 PM,55.6,23.4,29,30.14,10.0,WSW,16.1,25.3,N/A,,Clear,240,2012-10-07 18:55:00
2:15 PM,56.1,22.6,27,30.13,10.0,SW,16.1,23.0,N/A,,Clear,230,2012-10-07 19:15:00
2:35 PM,56.5,23.2,28,30.12,10.0,SW,12.7,21.9,N/A,,Clear,220,2012-10-07 19:35:00
2:55 PM,56.5,23.0,27,30.10,10.0,SW,12.7,21.9,N/A,,Clear,230,2012-10-07 19:55:00
3:15 PM,57.4,22.5,26,30.09,10.0,SW,12.7,19.6,N/A,,Clear,230,2012-10-07 20:15:00
3:35 PM,56.8,22.8,27,30.09,10.0,WSW,15.0,24.2,N/A,,Clear,240,2012-10-07 20:35:00
3:55 PM,56.8,23.5,28,30.08,10.0,SW,12.7,18.4,N/A,,Clear,230,2012-10-07 20:55:00
4:15 PM,56.7,23.5,28,30.07,10.0,SW,12.7,23.0,N/A,,Clear,220,2012-10-07 21:15:00
4:35 PM,56.5,23.2,28,30.07,10.0,SW,13.8,21.9,N/A,,Clear,230,2012-10-07 21:35:00
4:55 PM,56.7,24.3,29,30.06,10.0,WSW,15.0,20.7,N/A,,Clear,240,2012-10-07 21:55:00
5:15 PM,56.1,23.9,29,30.06,10.0,SW,18.4,23.0,N/A,,Clear,220,2012-10-07 22:15:00
5:35 PM,55.9,25.3,31,30.05,10.0,SW,17.3,21.9,N/A,,Clear,220,2012-10-07 22:35:00
5:55 PM,55.0,24.6,31,30.05,10.0,SW,13.8,19.6,N/A,,Clear,230,2012-10-07 22:55:00
6:15 PM,54.5,24.1,31,30.04,10.0,SW,10.4,19.6,N/A,,Clear,230,2012-10-07 23:15:00
6:35 PM,53.6,23.9,32,30.04,10.0,SW,13.8,20.7,N/A,,Clear,220,2012-10-07 23:35:00
6:55 PM,51.4,24.3,35,30.04,10.0,SSW,8.1,-,N/A,,Clear,200,2012-10-07 23:55:00
7:15 PM,50.0,24.8,37,30.04,10.0,SSW,6.9,-,N/A,,Clear,200,2012-10-08 00:15:00
7:55 PM,45.5,25.7,46,30.04,10.0,South,5.8,-,N/A,,Clear,190,2012-10-08 00:55:00
8:15 PM,44.4,25.5,48,30.04,10.0,South,6.9,-,N/A,,Clear,180,2012-10-08 01:15:00
8:35 PM,40.6,24.8,53,30.04,10.0,South,9.2,-,N/A,,Clear,170,2012-10-08 01:35:00
8:55 PM,39.9,25.3,56,30.04,10.0,South,8.1,-,N/A,,Clear,190,2012-10-08 01:55:00
9:15 PM,41.9,26.2,54,30.03,10.0,South,9.2,-,N/A,,Clear,190,2012-10-08 02:15:00
9:35 PM,43.3,26.4,51,30.03,10.0,South,9.2,-,N/A,,Clear,190,2012-10-08 02:35:00
9:55 PM,43.7,26.6,51,30.03,10.0,SSW,10.4,-,N/A,,Clear,200,2012-10-08 02:55:00
10:15 PM,45.0,27.5,50,30.02,10.0,SSW,10.4,-,N/A,,Clear,210,2012-10-08 03:15:00
10:35 PM,44.6,28.0,52,30.02,10.0,SSW,12.7,-,N/A,,Clear,210,2012-10-08 03:35:00
10:55 PM,44.2,28.4,54,30.02,10.0,SSW,11.5,-,N/A,,Clear,210,2012-10-08 03:55:00
11:15 PM,43.9,28.8,55,30.01,10.0,SSW,11.5,-,N/A,,Clear,210,2012-10-08 04:15:00
11:35 PM,44.6,29.3,55,30.01,10.0,SW,12.7,-,N/A,,Clear,220,2012-10-08 04:35:00
11:55 PM,43.9,30.0,58,30.01,10.0,SW,12.7,17.3,N/A,,Clear,220,2012-10-08 04:55:00